Weather History for Newburgh, NY

Change the Weather History Date:

Saturday, April 6, 2013

  Actual Average Record
Temperature  
Mean Temperature 40 °F -  
Max Temperature 50 °F 52 °F 81 °F (1985)
Min Temperature 30 °F 33 °F 21 °F (1982)
Degree Days  
Heating Degree Days 25    
Moisture  
Dew Point 10 °F    
Average Humidity 32    
Maximum Humidity 64    
Minimum Humidity 15    
Precipitation  
Precipitation 0.00 in - - ()
Sea Level Pressure  
Sea Level Pressure 30.22 in    
Wind  
Wind Speed 11 mph (NNW)    
Max Wind Speed 18 mph    
Max Gust Speed 29 mph    
Visibility 15 miles    
Events      
Averages and records for this station are not official NWS values.
T = Trace of Precipitation, MM = Missing Value Source: NWS Daily Summary

Daily Weather History Graph

Daily Weather History Graph

Search for Another Location

Airport:

Trip Planner

Search our weather history database for the weather conditions in past years. The results will help you decide how hot, cold, wet, or windy it might be!

Date:

Astronomy

Apr. 06, 2013 Rise Set
Actual Time 6:30 AM EDT 7:27 PM EDT
Civil Twilight 6:02 AM EDT 7:55 PM EDT
Nautical Twilight 5:29 AM EDT 8:29 PM EDT
Astronomical Twilight 4:54 AM EDT 9:04 PM EDT
Moon 4:15 AM EDT (4/6) 3:50 PM EDT (4/6)
Length of Visible Light 13h 53m
Length of Day
12h 56m
Waning Crescent, 15% of the Moon is Illuminated
Apr 6
Waning Crescent
Apr 10
New
Apr 18
First Quarter
Apr 25
Full
May 2
Last Quarter

Hourly Weather History & Observations

Time (EDT) Temp. Windchill Dew Point Humidity Pressure Visibility Wind Dir Wind Speed Gust Speed Precip Events Conditions
12:45 AM 35.6 °F 27.5 °F 15.8 °F 44% 30.02 in 10.0 mi NW 11.5 mph - N/A   Clear
2:45 AM 33.8 °F 25.3 °F 17.6 °F 52% 30.05 in 10.0 mi NW 11.5 mph - N/A   Clear
4:45 AM 30.2 °F 20.8 °F 19.4 °F 64% 30.11 in 10.0 mi WNW 11.5 mph - N/A   Partly Cloudy
5:45 AM 32.0 °F 26.4 °F 21.2 °F 64% 30.15 in 10.0 mi West 5.8 mph - N/A   Partly Cloudy
7:45 AM 32.0 °F 22.1 °F 12.2 °F 44% 30.22 in 20.0 mi North 13.8 mph 21.9 mph N/A   Clear
8:45 AM 33.8 °F 22.8 °F 6.8 °F 32% 30.25 in 20.0 mi North 18.4 mph 25.3 mph N/A   Clear
9:45 AM 35.6 °F 25.9 °F 5.0 °F 28% 30.26 in 20.0 mi North 16.1 mph 23.0 mph N/A   Clear
10:55 AM 39.2 °F 30.2 °F 1.4 °F 21% 30.28 in 20.0 mi NW 17.3 mph 28.8 mph N/A   Clear
11:45 AM 41.0 °F 34.3 °F 5.0 °F 23% 30.28 in 20.0 mi NNW 11.5 mph - N/A   Clear
12:45 PM 42.8 °F 36.6 °F 5.0 °F 21% 30.28 in 20.0 mi North 11.5 mph - N/A   Clear
1:45 PM 46.4 °F 40.4 °F 6.8 °F 20% 30.26 in 20.0 mi NW 13.8 mph - N/A   Clear
3:45 PM 50.0 °F - 3.2 °F 15% 30.23 in 20.0 mi Variable 3.5 mph - N/A   Clear
5:45 PM 50.0 °F - 6.8 °F 17% 30.24 in 20.0 mi Variable 4.6 mph - N/A   Clear
6:45 PM 50.0 °F - 5.0 °F 16% 30.26 in 20.0 mi Variable 4.6 mph - N/A   Clear
7:45 PM 48.2 °F - 5.0 °F 17% 30.26 in 10.0 mi Variable 4.6 mph - N/A   Clear
8:45 PM 44.6 °F 42.2 °F 10.4 °F 25% 30.28 in 10.0 mi Variable 4.6 mph - N/A   Clear
9:45 PM 42.8 °F 40.1 °F 10.4 °F 27% 30.28 in 10.0 mi Variable 4.6 mph - N/A   Clear
10:45 PM 42.8 °F 40.1 °F 15.8 °F 34% 30.28 in 10.0 mi Variable 4.6 mph - N/A   Clear
11:45 PM 39.2 °F 34.2 °F 21.2 °F 49% 30.27 in 10.0 mi Variable 6.9 mph - N/A   Clear